CAPE
0 0 0 0 0 0 0 0 0 2 28 21 45 187 348 87 205 212 11 26 35 57 6 13 6 9 11 6 0 0 0 1 2 5 7 4 1 1 2 2 1 1 5 7 228 309 336 291 449
0 0 0 0 0 0 0 0 0 0 0 6 0 26 99 22 1 6 23 29 30 27 35 20 0 4 5 2 0 0 0 1 0 2 7 3 2 0 0 1 1 2 1 12 31 143 182 117 85
0 0 0 0 0 0 0 0 0 0 0 0 0 1 0 2 7 10 28 27 32 27 22 10 0 3 3 0 0 0 0 0 1 2 3 2 0 0 0 0 0 1 3 0 2 0 23 63 21
0 0 0 0 0 0 0 0 0 0 0 0 0 0 0 6 9 13 25 25 24 21 24 7 0 0 0 0 0 0 0 0 0 0 0 0 0 0 0 0 0 0 0 0 0 0 0 9 2
0 0 0 0 0 0 0 0 0 0 0 0 0 0 1 17 18 21 16 14 16 21 17 1 0 0 0 0 0 0 0 0 0 0 0 0 0 0 0 0 0 0 0 0 0 0 0 0 0
0 0 0 0 0 0 0 0 0 0 0 0 0 4 7 18 14 11 6 16 20 7 4 0 0 0 0 0 0 0 0 0 0 0 0 0 0 0 0 0 0 0 0 0 0 0 0 0 0
0 0 0 0 0 0 0 0 0 5 0 0 2 8 6 16 16 10 16 10 3 2 2 7 0 0 0 0 0 0 0 0 0 0 0 0 0 0 0 0 0 0 0 0 0 0 0 0 0
0 0 0 0 0 0 0 0 0 11 5 0 0 0 0 16 16 6 18 5 4 4 3 1 0 0 0 0 0 0 0 0 0 0 0 0 0 0 0 0 0 0 0 0 0 0 0 0 0
0 0 0 0 0 0 0 0 0 0 0 3 2 4 9 10 5 1 13 12 7 1 0 0 0 0 0 0 0 0 0 0 0 0 0 0 0 0 0 0 0 0 0 0 0 0 0 0 0
0 0 0 0 0 0 0 0 29 29 10 20 27 9 18 10 8 5 8 11 13 13 2 1 0 0 0 0 0 9 1 12 6 2 0 0 0 0 0 0 0 0 0 0 0 0 0 0 0
0 0 0 0 0 0 0 36 65 112 81 91 70 63 45 33 18 8 4 6 4 12 3 11 24 40 18 29 39 37 30 19 19 9 8 3 0 5 0 0 1 0 0 0 0 0 0 0 0
0 0 0 0 0 33 58 57 33 77 75 80 125 118 68 39 26 3 3 1 4 13 20 43 40 14 20 7 13 25 22 17 18 23 17 0 0 7 8 13 6 1 0 0 0 3 0 0 0
0 0 0 0 0 52 48 56 69 58 72 95 116 101 69 45 31 21 9 6 21 37 91 112 44 0 0 22 0 3 5 9 23 39 38 51 45 28 38 44 46 34 21 7 3 6 5 6 1
0 0 0 0 22 43 67 89 71 92 111 130 121 117 116 87 99 56 34 35 86 100 118 119 6 0 6 20 58 27 5 15 35 45 53 61 62 60 59 47 50 66 60 51 32 9 7 18 21
0 0 0 0 1 35 49 30 23 93 142 170 160 163 142 130 127 107 90 186 207 174 141 0 0 56 55 54 31 0 14 16 13 0 0 0 0 1 44 52 47 49 50 71 86 64 50 30 27
0 0 0 1 0 0 2 0 4 113 136 165 167 140 128 157 138 134 185 318 193 67 82 23 6 135 175 130 16 12 8 0 0 0 0 0 0 0 0 0 0 0 0 3 18 58 54 24 65
0 0 0 0 0 0 0 0 35 133 147 172 179 125 134 159 166 197 306 266 229 72 48 136 86 57 270 160 34 0 0 0 0 0 0 0 0 0 0 0 0 0 0 0 0 0 1 3 15
0 0 0 0 0 0 0 0 35 149 180 179 171 136 172 197 209 259 258 151 174 187 196 156 132 283 139 31 0 0 0 0 0 0 0 0 0 0 0 0 0 0 0 0 0 0 0 0 1
0 0 0 0 0 0 0 0 1 146 190 196 177 159 216 286 21 0 1 0 24 96 17 6 19 21 20 0 0 0 0 0 0 0 0 0 0 0 0 0 0 0 0 0 0 0 0 0 0
0 0 0 0 0 0 0 0 0 51 229 217 221 202 247 116 1 0 1 0 0 0 0 0 0 0 0 0 0 0 0 0 0 0 0 0 0 0 0 0 0 0 0 0 0 0 0 0 2
0 0 0 0 0 0 0 0 36 74 176 247 237 275 294 41 2 3 0 0 0 0 0 0 0 0 0 0 0 0 0 0 0 0 0 0 0 0 0 0 0 0 0 0 0 0 0 0 0
0 0 0 0 0 10 0 0 30 33 153 216 39 28 4 3 3 2 0 0 0 0 0 0 0 0 0 0 0 0 0 0 0 0 0 0 0 0 0 0 0 1 1 1 0 0 0 0 0
0 0 0 0 0 0 2 3 50 30 1 0 0 0 0 0 0 0 0 0 0 0 0 0 0 0 0 0 0 0 0 0 0 0 0 0 0 0 1 2 3 3 3 4 4 6 6 4 1
0 0 0 0 0 0 1 0 33 0 0 0 0 0 0 0 0 0 1 0 0 0 0 0 0 0 0 0 0 0 0 0 0 0 0 0 0 1 4 3 5 9 6 6 4 4 4 1 2
0 0 0 0 0 2 0 0 15 0 0 0 0 0 0 0 0 2 7 0 0 0 0 0 0 0 0 0 0 0 0 0 0 0 1 2 2 2 0 0 2 6 3 4 3 2 0 0 1
0 0 0 0 0 0 1 16 2 0 0 0 0 1 0 2 10 16 2 8 2 0 0 0 0 0 0 0 0 0 0 1 1 4 4 5 2 0 0 0 1 3 4 3 1 7 8 7 5
0 0 0 0 0 0 0 2 2 0 0 0 2 6 12 10 0 0 5 12 0 0 0 0 0 0 0 0 0 0 2 3 7 0 0 2 2 1 2 3 2 3 6 1 11 13 10 10 9
0 0 0 4 0 0 0 8 2 2 4 0 7 21 1 0 0 2 3 1 0 0 0 0 0 0 0 0 0 0 1 2 5 8 1 2 0 2 1 1 2 1 0 6 5 1 3 15 9
0 0 0 0 0 0 0 4 9 2 3 1 13 10 8 0 11 5 2 0 0 0 0 0 0 0 0 0 0 0 0 5 7 3 0 3 4 2 10 1 2 2 0 0 10 0 8 2 2
0 0 0 0 0 0 0 5 0 5 1 2 5 1 12 25 6 0 0 0 0 0 0 2 2 0 0 0 0 0 3 3 0 0 1 1 3 5 6 6 5 1 3 6 3 1 4 5 0
CIN
0 0 0 0 0 0 0 0 0 -41 -135 -280 -198 -156 -98 -269 -128 -92 -1 0 -238 -175 -88 -8 -1 -31 0 0 0 0 0 0 0 0 -1 0 0 0 0 0 0 0 0 -252 -96 -65 -69 -87 -42
0 0 0 0 0 0 0 0 0 0 0 -159 0 -241 -184 -180 -1 0 0 -1 -1 0 0 -1 0 0 0 0 0 0 0 0 0 0 -2 0 0 0 0 0 0 0 0 -141 -236 -151 -118 -157 -200
0 0 0 0 0 0 0 0 0 0 0 0 0 -19 0 0 -1 0 -1 0 0 -1 -1 0 0 0 0 0 0 0 0 0 0 0 -1 0 0 0 0 0 0 0 0 -1 -7 -2 -281 -190 -284
0 0 0 0 0 0 0 0 0 0 0 0 0 0 0 -1 0 -2 0 -1 -1 0 -1 -1 0 0 0 0 0 0 0 0 0 0 0 0 0 0 0 0 0 0 0 0 0 0 -1 -312 -112
0 0 0 0 0 0 0 0 0 0 0 0 0 0 0 0 -2 -1 -1 -1 -1 -1 -1 -1 0 0 0 0 0 0 0 0 0 0 0 0 0 0 0 0 0 0 0 0 0 0 0 0 0
0 0 0 0 0 0 0 0 0 0 0 0 0 -141 -182 0 -1 -1 -6 -1 0 0 -1 0 0 0 0 0 0 0 0 0 0 0 0 0 0 0 0 0 0 0 0 0 0 0 0 0 0
0 0 0 0 0 0 0 0 0 -47 0 0 -40 -172 0 0 -1 -1 -1 0 -1 0 -1 0 0 0 0 0 0 0 0 0 0 0 0 0 0 0 0 0 0 0 0 0 0 0 0 0 0
0 0 0 0 0 0 0 0 0 -111 -62 0 0 -5 -13 -2 -1 -2 -1 0 -1 -1 0 0 0 0 0 0 0 0 0 0 0 0 0 0 0 0 0 0 0 0 0 0 0 0 0 0 0
0 0 0 0 0 0 0 0 0 0 0 -232 -104 -245 -250 -1 -2 -2 -1 -1 -1 -1 0 0 0 0 0 0 0 0 0 0 0 0 0 0 0 0 0 0 0 0 0 0 0 0 0 0 0
0 0 0 0 0 0 0 0 -129 -131 -189 -203 -256 -274 -264 -24 -1 -1 -1 -1 -1 -1 -1 -1 0 0 0 0 0 -3 0 -1 -1 -1 0 0 0 0 0 0 0 0 0 0 0 0 0 0 0
0 0 0 0 0 0 0 -73 -80 -33 -62 -81 -205 -234 -245 -244 -231 -119 -2 -2 -2 -15 -2 -1 -68 -49 -64 0 -1 -1 0 0 -1 -2 -5 -1 0 -1 0 0 -1 0 0 0 0 0 0 0 0
0 0 0 0 0 -40 -33 -75 -75 -50 -112 -169 -202 -186 -208 -193 -194 -197 -188 -1 -3 -1 -10 -53 -41 -82 -64 0 0 -1 0 -1 -1 -1 -2 0 -1 -1 -1 -1 -1 0 0 0 0 -1 0 0 0
0 0 0 0 0 -51 -86 -43 -49 -129 -213 -196 -210 -178 -166 -169 -155 -147 -155 -54 -2 -26 -18 -2 -34 0 0 -57 0 0 0 -1 -2 -1 -1 -1 -1 -2 -1 -1 -1 -1 -1 -1 -1 -1 -1 -1 -1
0 0 0 0 -58 -81 -41 -62 -79 -166 -213 -185 -172 -145 -129 -136 -116 -123 -101 -60 -31 -11 -1 -4 0 0 -37 -30 -19 -2 -2 -6 0 0 -2 -5 -1 -1 0 -2 -1 -1 -1 -2 -1 -1 -2 -2 -2
0 0 0 0 -4 -57 -48 -37 -49 -155 -169 -144 -145 -128 -124 -116 -96 -77 -41 -12 -2 -3 -1 0 0 -7 -11 -19 -24 0 -9 -10 -7 0 0 0 0 -1 -2 -1 -1 -2 -1 -1 -1 -1 -1 -1 -2
0 0 0 -1 0 0 -37 0 -80 -155 -144 -122 -122 -126 -119 -83 -50 -29 -10 0 -3 -2 -2 -2 -1 -1 0 -13 -10 -13 -21 0 0 0 0 0 0 0 0 0 0 0 0 -1 -2 -2 -1 -2 -2
0 0 0 0 0 0 0 0 -48 -134 -120 -99 -108 -119 -100 -52 -16 -1 -2 -2 -2 -2 -4 -2 -3 -6 -1 -23 -24 0 0 0 0 0 0 0 0 0 0 0 0 0 0 0 0 0 -1 -7 -5
0 0 0 0 0 0 0 0 -23 -93 -94 -79 -88 -85 -56 -12 -1 -1 -2 -5 -4 -3 0 0 -1 -1 -17 -47 0 0 0 0 0 0 0 0 0 0 0 0 0 0 0 0 0 0 0 0 -1
0 0 0 0 0 0 0 0 -5 -62 -113 -88 -70 -47 -18 -1 -98 0 0 -90 -37 -48 -37 -52 -69 -73 -48 0 0 0 0 0 0 0 0 0 0 0 0 0 0 0 0 0 0 0 0 0 -1
0 0 0 0 0 0 0 0 0 -26 -78 -58 -22 -8 -2 -20 0 0 0 0 0 0 0 0 0 0 0 0 0 0 0 0 0 0 0 0 0 0 0 0 0 0 0 0 0 0 0 0 -2
0 0 0 0 0 0 0 0 -5 -38 -43 -28 -24 -2 -5 -89 0 0 0 0 0 0 0 0 0 0 0 0 0 0 0 0 0 0 0 0 0 0 0 0 0 0 0 0 0 0 0 0 0
0 0 0 0 0 -4 0 0 -4 -22 -20 -22 -133 -68 -12 0 0 0 0 0 0 0 0 0 0 0 0 0 0 0 0 0 0 0 0 0 0 0 0 0 -1 0 -1 -1 -1 0 -1 0 0
0 0 0 0 0 0 -2 -2 -8 -19 -2 0 0 0 -1 0 0 0 0 0 0 0 0 0 0 0 0 0 0 0 0 0 0 0 0 0 0 0 -1 -1 0 -1 -1 -1 -2 -1 -1 -2 -2
0 0 0 0 0 0 -1 0 -6 0 0 0 0 0 0 0 0 0 0 0 -3 0 0 0 0 0 0 0 0 0 0 0 0 0 0 0 -2 -1 0 -1 -1 0 -1 -1 -1 -1 -1 -1 -1
0 0 0 0 0 -4 0 0 -8 0 0 0 0 0 0 0 0 -4 -9 -9 0 0 0 0 0 0 0 0 0 0 0 0 0 0 -1 -1 -2 -1 -3 -1 -1 -1 -1 -2 -1 0 -1 -1 -1
0 0 0 0 0 0 -2 -3 -5 0 0 0 0 -1 -2 -1 -5 -9 -13 -14 -5 0 0 0 0 0 0 0 0 0 0 -1 -1 -1 0 -1 -2 -2 0 0 0 0 0 0 0 0 0 -2 -1
0 0 0 0 -1 0 -1 -5 0 -1 0 -1 0 -1 -1 -1 0 -1 -5 0 0 0 0 0 0 0 0 0 0 0 -1 -1 -1 -1 -1 0 -1 -2 -1 -1 -2 -1 0 0 -1 0 0 0 -1
0 0 0 -2 0 0 0 -2 -8 0 0 -1 0 0 0 0 -1 -1 -2 -2 0 0 0 0 0 0 0 0 0 0 -1 -1 -1 -1 -1 -1 -1 -1 -1 -1 -1 -1 -1 -1 0 0 -1 0 0
0 0 0 0 0 0 0 -3 -1 0 0 -1 0 0 -2 0 -1 -1 -1 0 0 0 0 0 0 0 0 0 0 0 0 -1 -1 -1 0 -1 -1 -1 0 -1 -1 -1 0 0 0 0 0 0 0
0 0 0 0 0 0 0 -1 0 0 -1 0 0 0 -1 -1 -2 0 0 0 0 0 -10 -11 -20 0 0 0 0 0 0 0 0 -3 -1 -1 -1 -1 -1 0 0 0 0 0 0 0 0 0 0
Wind_Speed
11 12 14 15 11 6 3 9 14 7 8 11 11 13 14 18 17 16 12 11 10 10 10 11 12 12 12 12 14 15 16 16 15 15 16 17 17 18 18 19 19 19 18 17 18 18 17 16 16
13 14 13 14 5 2 6 14 7 10 10 9 9 12 13 14 15 12 12 12 12 12 11 12 13 13 13 13 13 14 15 15 15 15 16 17 18 18 19 19 19 19 19 18 18 18 17 16 16
13 13 6 8 1 3 6 14 10 8 8 9 11 15 15 15 12 13 11 12 13 13 13 13 13 14 14 13 13 13 14 15 15 16 16 17 18 18 19 19 19 19 19 19 20 19 19 17 16
13 9 8 3 1 12 12 14 9 7 10 11 10 13 14 13 11 11 11 12 12 13 14 13 13 14 14 13 13 14 14 15 15 16 17 18 18 18 18 19 19 19 19 20 20 20 20 18 17
10 11 4 6 9 11 14 16 5 6 8 7 9 11 12 13 11 10 11 11 11 13 13 14 14 14 14 14 14 14 15 15 16 17 17 18 18 19 19 19 19 20 20 20 20 20 19 19 18
7 13 7 7 8 12 15 11 7 8 7 8 9 9 12 10 9 9 10 11 12 12 13 14 14 14 14 14 14 15 15 16 16 17 18 18 19 19 19 20 20 20 21 21 21 21 21 20 21
4 7 10 13 12 12 14 9 8 9 8 10 8 12 11 7 8 8 9 11 12 13 12 13 13 14 14 14 14 15 16 16 17 17 17 18 19 20 20 20 21 21 21 21 21 21 21 21 21
9 10 12 11 12 14 13 9 11 9 10 9 10 12 9 5 7 8 9 10 11 11 11 11 12 12 13 13 14 15 16 17 17 17 18 19 18 19 19 19 22 22 22 21 21 20 20 20 20
13 11 14 14 14 17 11 10 11 11 8 10 11 12 9 5 6 6 7 8 9 10 10 10 11 11 12 14 14 15 16 17 17 17 18 19 20 20 20 21 21 21 21 21 20 20 19 19 18
8 13 16 17 19 18 12 10 8 8 7 11 12 11 6 5 4 4 5 6 6 7 8 9 10 11 12 14 16 16 16 18 19 20 20 20 20 20 21 20 20 19 19 18 19 19 19 18 18
11 16 18 17 19 16 11 9 9 9 10 13 11 7 4 4 4 5 5 5 5 6 7 8 9 12 14 15 15 16 17 17 18 20 20 20 21 19 19 20 19 19 16 16 16 16 17 19 20
16 16 19 18 16 12 9 9 11 12 16 16 8 4 4 3 4 4 5 5 5 6 7 8 9 12 13 14 14 16 17 18 18 20 20 20 20 19 19 19 19 17 17 17 16 18 19 19 19
17 18 18 16 14 12 11 12 15 15 16 12 7 4 3 3 4 5 6 6 6 7 8 8 10 12 13 13 15 16 17 19 20 20 20 21 21 20 20 20 20 20 18 16 17 18 19 19 18
19 18 16 14 13 12 12 14 15 15 13 10 5 4 4 3 4 5 5 6 6 7 8 8 10 11 11 13 15 17 18 19 20 21 22 22 22 22 22 22 22 21 20 20 18 17 20 21 21
17 18 15 13 11 14 13 15 15 13 10 7 5 3 3 3 3 3 4 5 6 8 8 8 8 10 11 13 15 17 19 20 21 22 23 24 25 26 25 25 25 25 24 23 23 19 16 15 18
20 20 21 11 11 13 13 20 13 10 6 5 4 3 2 1 3 3 4 5 6 7 7 8 9 10 12 15 16 18 19 20 21 22 22 24 25 25 25 25 26 28 27 27 28 30 28 19 17
18 23 19 18 10 14 13 21 15 9 5 6 3 1 0 2 1 2 4 4 6 7 7 8 10 11 13 15 17 18 19 20 21 23 23 25 25 26 27 26 26 28 28 27 28 28 28 30 27
24 21 19 19 13 12 14 19 14 7 4 4 2 2 3 2 0 2 6 8 10 9 9 10 11 13 15 17 18 19 20 22 23 24 24 26 26 28 28 28 28 29 29 28 29 30 30 30 28
20 20 19 16 14 15 17 18 17 7 4 3 3 4 4 2 9 10 11 10 11 10 9 12 13 15 16 18 20 22 24 26 25 25 26 26 27 28 28 28 29 29 30 30 29 30 31 30 29
14 17 18 16 15 11 16 17 17 8 5 6 7 6 5 7 9 11 9 12 10 10 11 14 15 18 19 20 23 24 26 25 26 26 25 26 26 27 27 29 29 30 31 30 30 30 31 29 28
10 14 20 19 16 10 18 18 14 16 13 13 12 14 16 11 13 13 14 12 9 9 12 16 17 20 21 23 25 27 25 24 25 25 25 26 26 26 27 28 29 30 31 31 31 30 30 31 29
17 17 15 17 17 22 18 26 19 17 18 17 20 21 20 19 18 15 11 11 9 12 13 16 18 19 22 26 27 27 27 28 26 25 25 26 25 26 27 28 29 30 31 31 31 30 31 30 32
21 19 17 18 18 21 16 18 18 15 19 21 21 19 18 17 15 12 12 10 13 15 16 17 18 21 23 24 25 24 24 25 27 26 27 26 25 26 27 29 30 31 31 31 31 32 31 30 30
17 17 16 17 17 19 21 19 19 21 24 20 19 17 15 13 12 11 12 13 17 18 17 15 18 22 23 24 22 22 24 28 29 29 28 28 28 28 28 30 30 31 32 33 34 33 31 31 31
17 22 27 23 22 23 20 21 19 23 24 21 16 15 14 13 12 13 14 16 16 15 14 16 18 20 21 22 23 25 27 28 29 30 30 31 31 31 31 32 31 32 33 34 33 32 31 31 31
22 21 22 27 28 26 22 20 19 20 20 18 16 14 13 13 14 15 15 15 15 13 14 16 18 21 22 24 27 28 29 29 29 28 29 29 30 31 30 31 32 34 34 33 31 31 29 29 29
21 22 21 21 18 20 18 18 16 19 18 16 15 13 13 14 16 16 14 15 17 18 16 17 18 20 24 27 28 29 30 30 29 28 27 27 29 28 31 33 34 35 34 33 31 29 27 28 29
23 20 21 17 21 20 16 17 20 24 18 11 12 14 14 14 14 14 15 17 19 18 16 17 19 22 24 26 28 30 31 30 27 27 27 28 27 28 30 34 35 32 31 30 29 28 27 27 28
23 19 18 15 16 18 20 19 23 25 17 10 11 12 14 13 12 15 20 20 20 19 19 19 20 22 24 27 30 31 33 29 28 28 28 26 27 28 31 33 33 32 31 30 30 29 28 28 28
19 17 16 16 17 16 18 18 21 19 18 13 12 11 12 11 16 19 21 22 22 22 21 22 23 24 26 29 30 31 31 30 29 28 28 28 27 28 31 32 33 31 31 30 29 28 27 27 27
Wind_Direction
356 353 344 339 342 354 334 348 336 0 356 345 353 349 346 340 340 343 20 31 46 49 51 41 31 24 23 17 15 14 13 13 10 9 5 360 356 353 353 350 349 349 351 351 351 350 351 348 348
349 345 342 340 344 245 340 333 357 340 345 13 7 0 354 347 355 17 29 48 53 53 48 38 34 33 25 21 19 18 14 12 7 3 1 356 354 350 348 347 348 347 346 345 343 343 343 341 341
348 341 29 5 50 206 342 342 344 357 350 348 343 342 347 353 16 10 45 55 55 46 42 39 38 40 32 26 23 19 15 12 6 0 359 356 355 353 351 349 349 347 344 339 337 335 333 330 333
346 15 13 13 13 350 337 337 348 346 331 331 348 349 354 3 18 29 55 48 40 42 43 36 32 31 28 27 23 19 16 10 6 3 1 359 357 356 355 352 350 347 344 341 335 329 327 324 321
3 352 6 353 348 344 338 327 4 351 339 351 346 348 358 356 20 49 49 41 40 40 38 36 32 29 32 33 25 17 13 10 8 5 1 359 359 356 354 353 351 348 345 341 337 334 328 322 317
7 342 355 347 346 346 334 348 354 337 341 344 352 357 352 14 37 38 40 33 31 33 41 48 44 37 36 30 23 17 13 9 6 0 357 358 355 353 351 351 349 347 343 339 335 332 327 319 312
35 1 344 341 344 341 336 349 335 333 335 333 351 340 350 18 34 38 35 36 34 37 41 34 37 36 38 27 17 11 9 4 360 358 355 352 351 349 348 348 348 346 344 340 336 331 327 321 315
357 349 341 346 344 339 342 343 336 328 324 336 332 332 340 19 48 44 39 38 31 35 38 34 30 31 27 20 13 8 3 359 357 354 351 350 353 352 351 349 346 343 342 341 338 334 329 324 316
335 340 332 337 339 342 345 338 334 334 337 329 333 336 354 60 57 38 24 30 25 31 37 36 30 24 16 5 1 359 358 356 353 354 351 348 347 348 350 350 348 347 346 344 340 335 331 324 319
348 333 334 335 333 333 339 331 340 341 338 331 332 348 44 62 51 25 9 9 20 21 41 32 24 13 4 356 353 354 353 345 342 340 341 345 347 348 349 352 352 352 350 348 345 338 330 326 320
338 322 334 333 332 338 349 348 345 337 330 330 329 351 36 55 35 10 16 21 18 34 35 24 14 2 352 350 354 355 351 350 348 344 343 342 342 347 350 350 354 354 358 355 351 345 335 326 317
323 324 326 332 337 345 350 356 345 333 333 335 350 27 59 33 16 20 23 25 22 22 25 17 6 358 357 358 359 357 353 350 349 345 345 344 347 348 349 350 350 355 356 352 351 341 333 327 319
318 322 326 331 336 337 342 335 332 332 338 348 7 41 41 55 56 46 49 37 24 15 11 11 359 1 5 7 3 1 355 352 346 347 348 348 349 350 347 345 342 340 345 348 345 339 331 324 320
325 323 327 334 337 336 330 328 330 334 346 356 38 54 63 74 79 64 34 21 20 22 14 5 2 13 18 8 2 356 352 347 347 347 346 346 344 341 340 338 338 338 338 336 337 336 328 321 315
325 318 321 324 331 331 332 323 323 339 351 357 1 16 84 99 84 17 12 23 22 18 16 15 12 15 10 4 356 352 349 346 344 344 344 342 339 334 334 332 330 331 332 329 326 326 327 323 317
316 317 311 326 327 332 331 320 339 347 352 349 349 349 342 19 351 21 23 30 29 27 25 20 12 5 3 359 356 350 347 346 345 344 345 343 342 340 338 336 333 329 328 325 320 314 315 321 316
319 311 315 321 330 331 326 323 335 340 339 336 335 331 350 344 20 17 14 20 32 18 26 30 14 9 359 355 351 351 348 347 346 344 343 342 342 338 335 333 332 329 326 325 323 320 318 311 311
318 317 317 316 332 327 325 324 334 345 342 326 314 301 307 320 72 30 356 6 349 354 359 1 6 3 357 351 346 343 341 341 341 340 339 338 337 335 332 330 329 328 325 323 321 318 316 312 313
330 324 322 327 333 327 325 327 333 346 325 316 311 298 298 279 347 354 343 346 353 337 4 12 360 356 357 350 341 339 335 332 335 337 338 338 338 336 333 332 330 329 325 321 322 319 315 313 312
347 338 337 339 341 344 340 338 341 346 328 322 321 310 293 321 331 343 341 330 12 355 20 18 5 0 348 346 335 339 335 333 331 334 337 339 339 338 337 334 333 331 326 325 326 324 318 315 314
357 347 338 340 355 353 341 336 344 346 343 338 330 327 324 319 321 325 333 341 357 28 357 15 7 351 355 336 335 335 336 336 335 338 338 339 338 339 340 339 336 332 329 326 327 326 321 317 316
349 354 350 347 346 337 349 330 343 353 355 350 338 330 327 323 321 320 330 343 343 2 3 3 1 356 347 338 339 340 337 329 337 338 337 337 340 340 342 340 338 335 332 329 327 326 323 320 314
341 351 349 342 339 336 337 339 347 1 355 348 345 342 340 336 335 335 339 354 349 350 0 354 354 347 351 356 354 356 351 345 336 337 335 339 341 341 340 338 337 334 332 331 328 325 323 321 316
356 353 350 346 342 333 342 340 343 346 343 349 354 356 358 1 3 4 356 352 349 347 354 356 345 347 353 356 6 5 352 337 335 337 340 339 338 338 337 336 335 334 333 330 326 324 323 321 317
359 345 331 335 336 335 351 342 343 346 349 357 6 12 19 20 9 1 357 349 354 356 348 345 357 357 1 3 3 355 345 339 338 337 336 335 335 335 336 336 338 336 333 330 329 328 324 322 319
342 343 337 329 329 329 339 344 352 359 6 18 26 33 45 44 20 360 356 357 356 4 358 359 0 357 2 359 349 343 340 340 338 339 338 338 337 338 340 341 339 337 335 334 334 331 328 326 323
343 338 343 336 340 338 348 357 7 5 10 23 28 42 44 23 8 6 7 3 348 346 352 354 1 2 351 347 345 344 342 339 339 341 343 343 341 343 341 340 338 338 339 338 336 336 332 327 324
340 345 337 348 341 346 357 355 353 352 0 28 43 40 44 36 28 16 9 354 350 355 3 2 357 352 351 350 347 345 344 345 347 347 346 344 345 345 344 342 341 344 345 344 342 339 335 330 326
341 345 352 358 354 350 350 356 357 356 10 57 47 41 29 40 31 7 350 348 349 353 353 353 350 349 349 348 344 345 344 347 347 346 344 347 345 346 345 345 347 346 347 346 344 341 338 332 328
357 357 1 356 354 356 354 357 10 22 36 50 43 41 28 29 7 357 351 348 346 344 344 344 343 343 343 344 345 345 344 345 344 345 347 347 347 347 345 348 348 349 348 348 347 344 343 338 333